STARLINK-36204, 68549

Orbit data source: Space-Track

STARLINK-36204, 68549 is a payload satellite owned by SpaceX/Seattle (US) in LEO that was launched on Thu, 02 Apr 2026 UTC via an FALCON 9 launch vehicle from the Air Force Eastern Test Range (AFETR). Payload-class satellites include a variety of spacecraft equipped with specific instruments for various scientific and technological missions. These include communications satellites like Starlink; space stations such as the ISS; scientific satellites like the Hubble; Earth observation satellites from companies like Planet Labs, Umbra, and HawkEye 360; GPS; miniature CubeSats for education and research; and military/defense satellites.

Loading next visibility...
Identifier
68549, 2026-070H
Orbit
LEO
Country
Flag of USUS
Related business
Manufacturer
SpaceX/Seattle
Mission
Operational spacecraft
Bus & Motor
STARLINK V2MO, Unknown motor
Mass
575 kg wet, ~530 kg dry
Launch date (UTC)
2026-04-02 (2 months ago)
Launch vehicle
FALCON 9
Launch site
Air Force Eastern Test Range (AFETR)
Object type
Payload
Rocket body
Debris
Shape & HBR
Unknown shape, 14.5 m
Radar Cross Section
RCS unknown

Expand to show TLE details & history
Last TLE update: 14 hours ago

TLE from 14 hours ago
0 STARLINK-36204
1 68549U 26070H   26138.43588604 -.00277177  00000-0 -53660-2 0  9990
2 68549  53.1601  38.5954 0003501  54.1066 306.0267 15.48152265  7230
Epoch: 2026-05-18T10:27Z
TLE epoch observation values (Epoch: 2026-05-18T10:27:40.553Z)
Latitude
-0.00005°
Longitude
5.55221°
Altitude
421.638 km
Speed
7.66 km/s
True Right ascension
02h 34m 22s
True Declination
0° 00' 00"
Sunlit
Object was in daylight at epoch
Visualization orbit readout
Latitude
Unknown
Longitude
Unknown
Altitude
Unknown
Speed
Unknown
Apparent Right ascension
Unknown
Apparent Declination
Unknown
Sunlit
N/A
Visualization observer readout
Local Sidereal Time
09:02:04
Azimuth
Unknown
Elevation
Unknown
Doppler factor
Unknown
Orbital elements
Apogee altitude
424.771 km
Perigee altitude
420.009 km
Semi-major axis
6,800.527 km
Eccentricity
0.00035
Inclination
53.1601°
RAAN
38.5954°
Arg. of periapsis
54.1066°
True anomaly
305.99425°
Mean anomaly
306.0267°
Eccentric anomaly
306.01047°
Mean motion
3.87016 °/min
Orbital period
93.02 mins
BSTAR
-0.005366
Loading maneuver chart data...
Computing Atmospheric mass density...
Loading historical data...
Loading historical data...
Loading historical data...
Loading historical data...
Loading historical data...
Loading historical data...
Loading historical data...

Documentation

Showing up to 5 results
|